Preview of NWS' New Version of Forecast
This preview is not operational and should not be used for support decisions.

Regional Weather Roundup (RWR)

Issued by National Weather Service (NWS)

                            
000
ASUS44 KJAN 180910
RWRMS 

MISSISSIPPI HOURLY WEATHER ROUNDUP
NATIONAL WEATHER SERVICE JACKSON MS
400 AM CDT MON MAR 18 2019

NOTE: "FAIR: INDICATES FEW OR NO CLOUDS BELOW 12,000 FEET WITH NO
SIGNIFICANT WEATHER AND/OR OBSTRUCTIONS TO VISIBILITY.

MSZ001>002-007>008-010>013-018>021-025>028-034>036-181000-
NORTHWEST MISSISSIPPI
  
CITY           SKY/WX    TMP DP  RH WIND       PRES   REMARKS
BATESVILLE     FAIR      37  36  93 CALM      30.27S                  
CLARKSDALE     CLEAR     43  43 100 CALM      30.27F                  
CLEVELAND      FAIR      45  39  80 NW5       30.27S                  
GREENWOOD      FAIR      40  36  86 NE5       30.26F                  
GREENVILLE     FAIR      45  42  89 CALM      30.26F                  
OLIVE BRANCH     N/A     43  28  56 NE8       30.29S HAZE             
OXFORD         FAIR      36  34  93 CALM      30.29S                  
TUNICA           N/A     41  36  81 NE6       30.28F                  
WINONA         FAIR      38  37  96 CALM      30.26S                  
$$

MSZ003>006-009-014>017-022>024-029>033-037>039-181000-
NORTHEAST MISSISSIPPI
  
CITY           SKY/WX    TMP DP  RH WIND       PRES   REMARKS
ABERDEEN       FAIR      36  36 100 CALM      30.27F                  
COLUMBUS AFB   FAIR      38  36  91 CALM      30.25F                  
CORINTH        FAIR      43  27  52 VRB5      30.29S                  
GOLDN TRIANGLE FAIR      41  37  86 CALM      30.26F                  
STARKVILLE     FAIR      36  36 100 CALM      30.27F                  
TUPELO         FAIR      39  34  82 N6        30.27S WCI  35          
$$

MSZ040-058-181000-
CENTRAL MISSISSIPPI
  
CITY           SKY/WX    TMP DP  RH WIND       PRES   REMARKS
JACKSON INTL   FAIR      42  36  79 CALM      30.25F                  
JACKSON HAWKNS FAIR      43  37  79 CALM      30.25F                  
MADISON        FAIR      39  36  87 CALM      30.24F                  
MERIDIAN KEY   FAIR      38  35  89 CALM      30.24F                  
MERIDIAN NAS   FAIR      39  35  86 CALM      30.24F                  
RAYMOND          N/A     39  39 100 CALM      30.25F                  
VICKSBURG VKS  MOSUNNY   41  39  93 CALM      30.26F                  
$$

MSZ059>079-181000-
SOUTH MISSISSIPPI
  
CITY           SKY/WX    TMP DP  RH WIND       PRES   REMARKS
HATTIESBURG    FAIR      40  37  89 CALM      30.24F                  
LAUREL         SUNNY     41  37  84 CALM      30.24S                  
MCCOMB         FAIR      48  32  53 N6        30.24F                  
NATCHEZ        FAIR      39  35  86 CALM      30.26S                  
PINE BELT      FAIR      42  34  73 N5        30.24F                  
$$

MSZ080>082-181000-
COASTAL MISSISSIPPI
  
CITY           SKY/WX    TMP DP  RH WIND       PRES   REMARKS
BILOXI         FAIR      49  35  59 N6        30.20S                  
PASCAGOULA     FAIR      44  36  73 N5        30.20F                  
GULFPORT       FAIR      44  37  76 N5        30.20F                  
$$

LAZ007>009-015>016-023>026-181000-
NORTHEAST LOUISIANA
  
CITY           SKY/WX    TMP DP  RH WIND       PRES   REMARKS
BASTROP        FAIR      38  37  98 CALM      30.27S                  
TALLULAH/VBURG FAIR      44  41  89 CALM      30.26F                  
VIDALIA        FAIR      41  37  85 CALM      30.25F                  
$$